Appleton, MN

7:06 AM CDT on August 28, 2016 (GMT -0500)
Appleton Municipal

Weather History for KAQP - September, 2011

Change the Weather History Date:

Thursday, September 15, 2011

  Actual Average Record
Temperature  
Mean Temperature 42 °F -  
Max Temperature 57 °F 71 °F 89 °F (2012)
Min Temperature 28 °F 48 °F 26 °F (2007)
Degree Days  
Heating Degree Days 22    
Moisture  
Dew Point 28 °F    
Average Humidity 60    
Maximum Humidity 100    
Minimum Humidity 25    
Precipitation  
Precipitation 0.00 in - - ()
Sea Level Pressure  
Sea Level Pressure 30.38 in    
Wind  
Wind Speed 3 mph (SE)    
Max Wind Speed 8 mph    
Max Gust Speed -    
Visibility 10 miles    
Events      
Averages and records for this station are not official NWS values.
T = Trace of Precipitation, MM = Missing Value Source: NWS Daily Summary

Daily Weather History Graph

Daily Weather History Graph

Search for Another Location

Airport or City:

Trip Planner

Search our weather history database for the weather conditions in past years. The results will help you decide how hot, cold, wet, or windy it might be!

Date:

Astronomy

Sep. 15, 2011 Rise Set
Actual Time 7:02 AM CDT 7:35 PM CDT
Civil Twilight 6:32 AM CDT 8:04 PM CDT
Nautical Twilight 5:57 AM CDT 8:39 PM CDT
Astronomical Twilight 5:21 AM CDT 9:16 PM CDT
Moon 8:37 PM CDT (9/15) 10:24 AM CDT (9/15)
Length of Visible Light 13h 32m
Length of Day
12h 33m
Waning Gibbous, 90% of the Moon is Illuminated
Sep 15
Waning Gibbous
Sep 20
Last Quarter
Sep 27
New
Oct 3
First Quarter
Oct 11
Full

Hourly Weather History & Observations

Time (CDT) Temp. Windchill Dew Point Humidity Pressure Visibility Wind Dir Wind Speed Gust Speed Precip Events Conditions
12:15 AM 35.6 °F 32.8 °F 30.2 °F 81% 30.40 in 10.0 mi NNE 3.5 mph - N/A   Clear
12:35 AM 35.6 °F 31.7 °F 30.2 °F 81% 30.40 in 10.0 mi ENE 4.6 mph - N/A   Clear
12:54 AM 35.6 °F 32.8 °F 30.2 °F 81% 30.41 in 10.0 mi ENE 3.5 mph - N/A   Clear
1:14 AM 35.6 °F 31.7 °F 32.0 °F 87% 30.41 in 10.0 mi ENE 4.6 mph - N/A   Clear
1:34 AM 35.6 °F - 32.0 °F 87% 30.41 in 10.0 mi Calm Calm - N/A   Clear
1:54 AM 35.6 °F 30.7 °F 30.2 °F 81% 30.42 in 10.0 mi East 5.8 mph - N/A   Clear
2:15 AM 30.2 °F - 28.4 °F 93% 30.41 in 10.0 mi Calm Calm - N/A   Clear
2:34 AM 32.0 °F 26.4 °F 30.2 °F 93% 30.42 in 10.0 mi WSW 5.8 mph - N/A   Clear
2:54 AM 33.8 °F - 30.2 °F 87% 30.41 in 10.0 mi Calm Calm - N/A   Clear
3:14 AM 32.0 °F - 28.4 °F 87% 30.41 in 10.0 mi Calm Calm - N/A   Clear
3:35 AM 28.4 °F 24.6 °F 28.4 °F 100% 30.41 in 10.0 mi West 3.5 mph - N/A   Clear
4:14 AM 33.8 °F - 30.2 °F 87% 30.42 in 10.0 mi Calm Calm - N/A   Clear
4:34 AM 33.8 °F - 30.2 °F 87% 30.42 in 10.0 mi Calm Calm - N/A   Clear
4:54 AM 32.0 °F 25.6 °F 30.2 °F 93% 30.41 in 10.0 mi NNE 6.9 mph - N/A   Clear
5:14 AM 32.0 °F 28.7 °F 30.2 °F 93% 30.41 in 10.0 mi NE 3.5 mph - N/A   Clear
5:35 AM 33.8 °F - 30.2 °F 87% 30.42 in 10.0 mi Calm Calm - N/A   Clear
5:54 AM 32.0 °F - 30.2 °F 93% 30.42 in 10.0 mi Calm Calm - N/A   Clear
6:14 AM 30.2 °F - 26.6 °F 86% 30.42 in 10.0 mi Calm Calm - N/A   Clear
6:34 AM 30.2 °F - 28.4 °F 93% 30.42 in 10.0 mi Calm Calm - N/A   Clear
6:54 AM 30.2 °F - 30.2 °F 100% 30.42 in 10.0 mi Calm Calm - N/A   Clear
7:15 AM 30.2 °F 26.7 °F 30.2 °F 100% 30.42 in 10.0 mi ENE 3.5 mph - N/A   Clear
7:34 AM 30.2 °F - 30.2 °F 100% 30.43 in 10.0 mi Calm Calm - N/A   Clear
7:54 AM 33.8 °F - 32.0 °F 93% 30.43 in 10.0 mi Calm Calm - N/A   Clear
8:14 AM 35.6 °F - 33.8 °F 93% 30.44 in 10.0 mi Calm Calm - N/A   Clear
8:34 AM 39.2 °F - 37.4 °F 93% 30.44 in 10.0 mi Calm Calm - N/A   Clear
8:55 AM 39.2 °F - 37.4 °F 93% 30.44 in 10.0 mi Calm Calm - N/A   Clear
9:14 AM 42.8 °F 41.1 °F 35.6 °F 76% 30.44 in 10.0 mi ESE 3.5 mph - N/A   Clear
9:34 AM 44.6 °F 43.1 °F 33.8 °F 66% 30.43 in 10.0 mi East 3.5 mph - N/A   Clear
9:54 AM 46.4 °F 45.2 °F 33.8 °F 62% 30.43 in 10.0 mi East 3.5 mph - N/A   Clear
10:14 AM 46.4 °F 44.3 °F 33.8 °F 62% 30.44 in 10.0 mi South 4.6 mph - N/A   Clear
10:34 AM 48.2 °F - 33.8 °F 58% 30.45 in 10.0 mi Calm Calm - N/A   Clear
10:55 AM 50.0 °F - 30.2 °F 47% 30.44 in 10.0 mi Calm Calm - N/A   Clear
11:15 AM 51.8 °F - 30.2 °F 44% 30.44 in 10.0 mi Calm Calm - N/A   Clear
11:34 AM 51.8 °F - 28.4 °F 41% 30.44 in 10.0 mi East 6.9 mph - N/A   Clear
11:54 AM 51.8 °F - 28.4 °F 41% 30.44 in 10.0 mi Calm Calm - N/A   Clear
12:14 PM 53.6 °F - 28.4 °F 38% 30.43 in 10.0 mi Calm Calm - N/A   Clear
12:35 PM 53.6 °F - 24.8 °F 33% 30.42 in 10.0 mi Calm Calm - N/A   Scattered Clouds
12:54 PM 55.4 °F - 24.8 °F 31% 30.42 in 10.0 mi SSE 6.9 mph - N/A   Clear
1:14 PM 55.4 °F - 26.6 °F 33% 30.41 in 10.0 mi South 6.9 mph - N/A   Clear
1:34 PM 55.4 °F - 23.0 °F 29% 30.40 in 10.0 mi SSE 4.6 mph - N/A   Clear
1:55 PM 55.4 °F - 21.2 °F 26% 30.39 in 10.0 mi SE 5.8 mph - N/A   Clear
2:15 PM 55.4 °F - 21.2 °F 26% 30.38 in 10.0 mi SSW 8.1 mph - N/A   Clear
2:35 PM 55.4 °F - 21.2 °F 26% 30.37 in 10.0 mi SE 5.8 mph - N/A   Clear
2:55 PM 57.2 °F - 21.2 °F 25% 30.36 in 10.0 mi East 3.5 mph - N/A   Clear
3:15 PM 57.2 °F - 21.2 °F 25% 30.35 in 10.0 mi East 4.6 mph - N/A   Clear
3:35 PM 57.2 °F - 23.0 °F 27% 30.34 in 10.0 mi South 8.1 mph - N/A   Clear
3:54 PM 57.2 °F - 21.2 °F 25% 30.34 in 10.0 mi South 5.8 mph - N/A   Clear
4:15 PM 55.4 °F - 21.2 °F 26% 30.33 in 10.0 mi SSW 3.5 mph - N/A   Clear
4:35 PM 55.4 °F - 21.2 °F 26% 30.32 in 10.0 mi South 3.5 mph - N/A   Clear
4:55 PM 57.2 °F - 21.2 °F 25% 30.32 in 10.0 mi SE 4.6 mph - N/A   Clear
5:14 PM 55.4 °F - 21.2 °F 26% 30.31 in 10.0 mi SSE 3.5 mph - N/A   Clear
5:54 PM 55.4 °F - 23.0 °F 29% 30.29 in 10.0 mi ESE 4.6 mph - N/A   Clear
6:15 PM 55.4 °F - 24.8 °F 31% 30.29 in 10.0 mi ESE 5.8 mph - N/A   Clear
6:35 PM 55.4 °F - 26.6 °F 33% 30.29 in 10.0 mi South 4.6 mph - N/A   Clear
6:55 PM 55.4 °F - 24.8 °F 31% 30.28 in 10.0 mi South 4.6 mph - N/A   Clear
7:15 PM 53.6 °F - 24.8 °F 33% 30.28 in 10.0 mi SSE 3.5 mph - N/A   Clear
7:35 PM 51.8 °F - 28.4 °F 41% 30.27 in 10.0 mi SSE 3.5 mph - N/A   Clear
7:55 PM 51.8 °F - 30.2 °F 44% 30.27 in 10.0 mi SSE 3.5 mph - N/A   Clear
8:15 PM 51.8 °F - 30.2 °F 44% 30.27 in 10.0 mi SSE 3.5 mph - N/A   Clear
8:35 PM 50.0 °F - 30.2 °F 47% 30.27 in 10.0 mi Calm Calm - N/A   Clear
8:55 PM 50.0 °F - 30.2 °F 47% 30.27 in 10.0 mi Calm Calm - N/A   Clear
9:15 PM 50.0 °F - 32.0 °F 50% 30.28 in 10.0 mi Calm Calm - N/A   Clear
9:35 PM 48.2 °F - 32.0 °F 54% 30.27 in 10.0 mi Calm Calm - N/A   Scattered Clouds
9:55 PM 50.0 °F - 33.8 °F 54% 30.27 in 10.0 mi Calm Calm - N/A   Mostly Cloudy
10:15 PM 48.2 °F - 33.8 °F 58% 30.28 in 10.0 mi Calm Calm - N/A   Mostly Cloudy
10:35 PM 48.2 °F - 33.8 °F 58% 30.27 in 10.0 mi Calm Calm - N/A   Mostly Cloudy
10:55 PM 48.2 °F - 35.6 °F 62% 30.28 in 10.0 mi ESE 3.5 mph - N/A   Clear
11:15 PM 48.2 °F - 35.6 °F 62% 30.27 in 10.0 mi SE 3.5 mph - N/A   Scattered Clouds
11:35 PM 48.2 °F - 35.6 °F 62% 30.27 in 10.0 mi SE 3.5 mph - N/A   Clear
11:55 PM 48.2 °F - 35.6 °F 62% 30.27 in 10.0 mi SE 3.5 mph - N/A   Clear